Theta_e
341 343 345 347 347 347 348 348 348 349 349 348 348 347 347 346 345 344 343 343 338 337 335 334 333 332 332 331 331 331 330 330 330 330 329 329 326 325 324 323 322 320 318 317 317 316 317 317 319 318 316 315
338 341 344 344 345 345 345 346 347 347 347 347 347 345 345 343 342 341 342 340 339 336 335 335 335 334 331 331 331 331 330 330 330 329 329 328 326 325 324 322 321 319 317 316 315 315 315 314 316 315 316 312
337 334 339 341 342 342 343 344 344 345 344 343 344 344 341 337 334 333 335 335 337 336 334 332 330 333 331 331 330 330 330 330 329 329 328 327 325 324 323 321 319 317 316 313 313 312 311 311 310 311 312 309
340 332 332 336 339 339 341 341 342 341 338 336 335 336 333 328 327 327 327 327 328 329 332 330 326 329 333 331 331 331 330 330 329 328 328 326 325 323 321 320 317 315 313 311 310 309 311 312 310 305 305 306
340 337 328 330 331 333 335 337 336 336 331 327 326 327 323 321 327 325 324 324 324 322 324 322 323 328 331 330 331 331 330 329 328 328 327 326 325 322 321 317 315 313 311 310 308 309 311 309 303 302 304 304
338 338 332 334 334 332 332 329 328 330 332 327 330 322 322 325 326 326 324 324 324 323 322 321 321 325 330 329 332 332 330 328 327 327 327 326 324 322 319 314 306 306 311 309 307 307 310 301 301 301 301 303
335 335 334 336 336 334 329 330 329 332 331 330 331 327 325 325 326 326 325 324 324 324 320 321 320 324 327 329 330 331 330 329 327 326 326 326 324 320 315 308 302 300 299 298 305 307 302 301 300 301 300 302
332 332 334 336 336 335 334 333 331 332 331 331 330 328 326 325 325 326 326 323 321 322 322 320 318 322 324 326 326 326 326 327 327 326 325 325 322 317 311 306 302 301 299 296 295 297 300 301 302 301 301 301
331 330 331 334 335 335 334 333 333 332 332 331 330 328 327 326 325 326 325 322 322 321 321 318 317 319 320 319 319 320 318 319 320 320 315 314 311 305 304 303 302 302 299 298 299 299 299 299 300 300 300 301
330 330 328 330 332 333 332 332 332 331 331 330 330 328 327 326 325 325 324 321 321 320 320 319 317 318 319 318 318 319 318 316 317 315 312 310 307 304 302 301 300 300 301 300 299 298 298 298 299 299 299 300
329 328 329 328 328 329 329 329 330 330 330 330 328 328 327 326 324 323 322 321 319 319 320 318 318 317 317 319 318 318 316 315 316 313 310 307 306 302 300 301 301 301 300 299 299 299 299 299 298 298 298 298
330 329 329 328 327 327 327 327 328 328 328 329 328 327 327 324 324 323 321 320 319 318 319 318 318 317 317 317 317 317 315 315 313 311 307 304 301 299 300 300 300 301 301 299 299 299 299 299 298 298 298 298
330 329 328 327 327 326 325 328 328 328 327 327 327 327 327 323 323 322 321 319 319 318 317 316 317 316 316 317 316 317 314 313 312 309 303 300 299 299 299 299 299 299 299 298 298 299 299 298 297 297 298 298
329 329 328 328 328 327 326 327 327 327 326 326 326 326 326 324 323 321 321 319 318 318 315 315 316 316 316 316 316 315 314 311 310 304 299 299 299 299 298 298 297 297 297 297 297 298 298 297 297 297 297 297
329 328 328 328 328 327 327 327 326 326 326 325 325 325 326 324 323 321 321 318 317 316 315 315 315 315 315 315 315 314 312 310 306 300 299 300 298 298 297 297 297 296 296 296 297 298 297 296 296 296 297 297
328 327 328 327 328 327 327 326 326 325 325 323 324 324 325 324 323 321 321 319 317 316 314 314 314 314 315 314 312 312 308 306 303 300 299 298 297 297 297 296 296 296 295 295 296 296 296 296 295 295 296 296
326 326 327 326 327 327 327 326 325 325 324 324 324 324 324 325 323 321 320 318 317 314 314 312 313 313 313 312 310 309 305 303 300 299 298 299 299 297 296 296 295 297 295 295 295 296 295 295 295 295 295 296
323 324 324 324 325 325 326 325 325 324 324 324 323 322 323 324 323 322 320 318 316 314 313 312 312 312 310 309 307 306 303 301 298 297 298 297 297 299 296 295 295 293 294 294 293 293 294 294 294 294 295 295
322 321 322 322 323 324 324 324 323 323 324 323 323 322 321 322 322 322 320 317 315 313 312 311 310 310 309 308 306 303 301 300 298 298 298 297 296 295 294 295 296 294 294 293 294 294 293 293 293 294 295 295
320 322 321 321 320 321 320 321 322 321 322 323 321 321 320 320 320 320 320 316 314 312 311 310 309 309 308 307 304 302 300 299 298 297 298 296 295 294 293 294 293 294 293 293 294 292 292 293 293 293 293 294
319 320 320 321 320 321 320 320 319 319 319 319 321 318 317 318 319 319 319 315 313 312 309 308 308 308 307 305 303 301 300 298 297 297 297 295 295 294 292 292 291 292 293 294 293 292 293 292 292 292 294 293
318 319 318 319 318 318 319 319 319 319 319 318 317 317 315 317 317 317 317 315 312 310 309 307 306 306 306 304 302 301 299 298 296 296 295 293 294 293 293 292 291 292 293 295 294 293 293 292 293 293 293 293
316 317 317 317 316 317 317 317 318 318 318 317 316 316 315 316 316 314 315 314 310 309 308 305 304 304 304 302 301 300 298 297 295 296 295 293 293 294 294 293 292 293 294 294 294 293 292 292 293 292 292 291
314 315 312 312 313 313 313 314 314 316 316 316 315 315 314 314 313 312 313 312 309 309 307 304 303 302 302 301 300 299 297 296 294 295 294 293 293 293 293 293 293 293 293 292 292 291 292 291 292 292 292 292
310 309 310 310 310 311 311 312 312 313 314 313 313 313 312 312 312 311 311 310 309 308 306 305 302 301 301 300 299 298 297 297 295 295 295 294 294 293 292 292 292 293 293 291 288 289 289 290 291 291 291 291
309 310 310 309 309 310 310 310 309 310 311 312 312 311 310 310 309 310 310 309 309 308 307 304 301 300 299 298 298 298 297 295 295 295 294 294 292 292 292 291 293 293 292 288 287 286 287 288 289 290 289 289
307 308 309 309 308 308 308 309 309 309 309 309 309 307 307 307 307 307 306 307 307 308 307 305 301 300 299 298 297 296 295 295 294 295 294 294 293 291 290 291 293 293 293 287 287 287 286 284 285 288 287 288
305 307 308 307 306 307 305 302 305 306 306 306 307 305 305 305 306 305 304 304 304 305 306 305 303 300 299 298 297 297 296 294 294 294 294 294 292 292 290 290 292 292 291 289 289 284 285 284 284 283 285 285
302 305 304 305 304 303 303 303 302 302 303 303 303 303 303 304 305 305 303 303 303 303 304 303 303 300 298 298 297 296 296 295 295 294 295 294 293 292 292 290 290 291 291 290 292 289 285 284 284 283 284 285
301 302 301 300 299 298 299 299 300 299 299 300 300 301 302 303 303 304 303 302 302 301 301 301 302 300 298 297 296 296 295 295 294 294 294 294 293 292 291 291 290 290 291 291 291 290 289 288 285 284 285 285
300 299 300 300 300 299 298 297 299 300 300 300 301 301 301 301 302 302 302 301 300 300 299 300 300 299 299 297 297 296 295 294 294 295 294 294 293 292 292 290 289 290 290 290 290 292 293 291 289 289 286 283
Wind_Speed
12 12 12 12 13 13 14 14 14 13 13 14 16 15 15 13 12 11 11 9 10 9 8 8 7 7 7 8 7 7 6 6 7 5 5 6 6 6 6 6 6 6 5 5 5 6 5 6 6 7 7 4
12 12 12 12 12 12 12 12 13 13 13 14 15 14 12 11 11 8 11 11 10 11 9 8 5 5 6 7 7 7 6 6 5 5 5 7 7 6 6 6 6 6 6 6 6 6 6 6 6 7 7 4
9 12 12 12 12 12 12 11 11 11 11 12 13 12 11 10 8 8 10 11 10 9 10 10 8 4 7 8 8 7 7 7 7 7 7 7 7 7 7 6 6 6 6 6 7 6 6 5 6 8 5 4
8 10 12 12 12 11 11 11 11 11 10 10 9 8 8 8 6 7 7 11 9 11 11 11 8 7 3 8 8 8 9 9 9 9 9 8 9 8 7 7 7 6 6 6 6 5 4 6 6 3 3 3
9 9 11 9 11 11 11 10 10 9 8 8 7 6 7 7 5 4 4 7 5 9 7 10 11 9 6 9 9 9 9 10 10 10 10 9 9 9 9 8 7 6 6 5 4 3 4 6 4 4 5 4
7 7 11 8 7 7 8 8 8 7 5 6 4 7 7 5 6 5 4 4 6 4 6 8 10 9 8 9 8 8 10 11 10 10 10 10 10 10 10 9 5 4 4 3 1 2 4 3 1 3 3 4
6 7 8 9 9 7 8 8 8 6 6 5 6 6 6 6 6 5 6 5 6 5 8 7 9 9 8 8 7 7 8 9 11 11 11 11 11 11 11 6 4 4 2 1 2 3 2 0 4 2 3 4
6 6 8 8 8 8 7 7 7 7 7 6 6 7 7 6 5 6 6 9 12 9 6 7 9 10 9 7 6 8 6 8 9 11 11 11 11 8 5 4 5 5 4 3 3 3 1 3 1 1 3 3
9 8 8 8 8 8 8 8 8 7 7 7 7 8 7 6 5 5 6 6 6 6 7 6 5 5 6 4 4 7 4 4 4 5 4 5 6 4 4 3 5 5 5 5 5 3 4 3 1 2 3 3
8 9 7 8 9 8 7 8 8 7 8 7 8 6 7 7 6 6 6 6 7 6 7 7 6 6 6 5 5 5 6 5 4 4 5 4 4 4 4 3 3 4 5 4 2 4 3 3 2 3 3 2
7 7 7 6 7 8 8 7 8 8 8 8 7 7 7 8 7 7 6 7 7 6 6 7 7 7 6 6 6 5 6 5 6 5 6 5 4 5 4 3 2 1 1 3 4 4 2 2 3 3 3 3
8 6 7 7 6 7 7 7 7 7 7 8 8 8 7 8 7 7 7 7 7 7 6 7 7 7 6 6 6 6 5 6 6 6 6 5 5 4 4 4 2 2 1 3 4 4 3 1 3 4 4 3
8 7 7 7 7 7 7 7 7 7 7 7 7 7 8 7 8 7 7 8 7 7 6 6 7 7 7 7 6 7 6 6 7 6 7 6 6 4 4 4 3 3 3 3 4 4 3 2 4 4 4 3
9 8 8 9 8 7 7 7 7 7 7 7 7 7 7 8 7 7 7 7 7 8 6 6 7 8 8 7 7 8 8 6 7 7 6 5 5 5 4 4 3 4 4 3 4 4 3 3 4 4 4 3
10 9 9 8 8 7 7 7 7 7 7 7 7 7 8 7 7 7 7 7 7 7 7 6 7 7 7 7 7 8 8 6 7 7 7 7 6 5 5 6 4 4 3 3 3 4 3 2 4 4 3 3
8 9 8 8 8 8 7 7 7 7 7 7 7 7 9 7 7 7 7 7 7 7 7 7 7 7 7 7 7 8 7 7 7 6 5 6 5 5 5 5 5 4 4 4 3 3 3 2 4 3 3 3
8 7 7 6 7 7 7 8 7 7 7 7 7 7 9 9 9 7 8 8 8 8 7 7 7 7 7 7 7 7 6 7 6 6 6 6 5 6 5 6 5 4 4 5 4 4 3 3 3 3 4 3
6 5 5 5 6 6 7 7 8 8 6 7 7 7 8 10 9 8 7 8 8 8 8 8 7 7 7 7 6 7 7 7 7 7 7 7 7 7 7 7 5 5 5 4 4 4 3 4 3 3 3 3
5 4 4 4 5 5 5 6 6 6 6 6 6 6 7 8 8 9 8 8 9 8 8 8 7 7 7 7 7 7 7 8 7 7 7 7 8 5 6 6 6 5 6 6 6 4 2 3 3 3 3 3
4 4 4 3 4 3 4 4 4 4 5 4 5 6 6 6 7 7 7 7 8 8 8 8 8 8 7 7 8 8 7 8 8 7 6 6 7 7 5 7 6 5 6 5 5 5 4 4 4 3 4 3
1 2 3 3 3 3 3 3 3 3 3 3 5 4 6 5 6 6 6 6 7 8 7 7 7 7 8 7 8 8 8 8 7 7 7 7 6 7 7 7 6 5 6 5 5 4 4 4 3 4 5 4
1 1 2 1 1 2 3 3 2 2 3 3 3 4 5 5 5 5 6 6 6 7 6 6 7 6 8 8 8 8 8 8 7 7 8 8 6 8 7 7 8 6 6 5 5 4 4 4 2 3 5 4
3 2 2 2 2 2 1 2 1 1 1 1 2 3 4 6 6 5 5 5 5 7 6 6 6 7 7 7 8 8 8 7 7 7 7 9 7 6 7 8 7 8 7 6 5 4 4 3 1 2 3 3
4 3 3 1 2 2 1 2 2 1 1 2 2 3 5 5 5 5 5 5 5 5 6 6 6 7 6 7 8 8 8 8 8 10 10 9 9 8 5 7 7 7 8 6 6 4 3 3 2 2 1 1
3 2 2 2 2 1 1 0 1 1 0 2 2 3 4 5 5 5 5 5 5 6 6 6 5 6 6 7 7 8 9 9 9 8 9 8 7 10 7 6 7 8 9 9 4 3 3 1 0 1 0 2
3 2 2 2 2 2 1 3 3 1 1 1 2 3 4 5 4 6 6 6 6 6 7 6 6 6 7 7 7 7 5 6 6 6 6 6 5 5 9 7 9 10 11 3 8 6 3 0 1 2 3 4
4 5 6 6 5 6 2 5 4 3 2 2 2 3 3 3 3 4 4 5 5 6 6 6 7 7 7 7 8 7 7 7 7 8 9 8 9 6 4 3 5 11 11 7 5 4 6 2 2 2 2 4
5 6 6 6 6 6 6 3 4 5 5 4 3 3 3 1 1 3 4 4 4 4 5 6 7 6 7 8 8 9 9 8 9 8 8 9 8 8 7 4 7 7 7 5 11 4 6 4 4 2 8 8
6 6 4 4 3 3 2 2 3 3 1 2 1 1 2 1 0 1 3 3 4 4 5 5 5 5 5 7 7 7 8 8 10 10 10 11 10 11 12 9 6 7 7 7 10 8 5 1 2 6 3 5
7 7 7 7 6 6 3 2 1 0 1 3 3 3 2 3 3 2 2 2 4 4 4 4 4 4 4 5 6 6 6 6 6 8 9 10 10 11 9 11 8 8 8 8 8 5 4 7 7 6 3 5
8 8 8 6 5 4 4 5 4 4 4 5 1 2 2 2 2 2 3 3 4 4 4 4 4 4 4 4 4 5 6 6 7 7 8 7 9 10 9 7 10 12 11 7 7 7 7 1 1 5 9 6
Wind_Direction
188 192 195 196 199 199 198 199 198 194 189 188 187 189 194 192 189 184 177 177 160 163 161 155 163 168 191 205 212 211 205 202 207 202 174 148 138 137 138 130 124 116 104 90 78 67 55 36 14 11 15 57
189 190 194 198 200 202 203 200 196 193 189 185 188 192 195 191 192 177 175 159 162 162 158 150 147 175 190 209 212 212 207 205 204 184 167 146 141 143 138 127 114 103 93 81 70 59 49 36 13 7 8 66
190 190 193 195 199 200 201 199 195 195 193 186 187 191 188 181 178 182 169 167 164 160 141 132 118 132 193 209 209 206 209 203 195 186 174 156 150 145 132 121 107 94 81 73 60 52 39 17 5 354 22 23
185 191 190 190 193 196 196 193 195 196 192 189 185 183 174 162 158 168 160 158 153 145 138 133 133 132 193 213 208 204 202 194 188 182 179 163 153 143 134 118 99 89 79 67 58 42 8 358 350 3 28 7
187 187 187 187 190 191 192 190 190 193 189 191 189 177 152 139 138 142 137 144 141 139 138 139 140 145 177 211 205 203 193 191 183 182 183 164 154 145 126 105 95 88 85 75 59 22 355 359 340 13 11 21
189 183 185 186 185 191 191 193 189 186 181 183 178 162 149 153 150 142 143 149 135 142 137 144 145 152 171 206 207 197 187 188 182 181 184 165 155 142 119 110 88 74 75 77 60 316 328 336 320 25 17 39
188 177 182 191 189 190 190 189 187 182 185 174 171 165 167 169 164 156 154 159 146 152 142 148 152 156 172 203 201 178 180 180 181 183 185 167 154 140 139 141 136 130 130 168 248 273 284 25 55 33 22 43
187 188 177 190 192 191 192 194 189 191 185 179 174 168 172 178 172 170 157 171 159 151 151 151 157 162 167 197 176 167 161 169 181 182 183 170 147 139 162 187 146 148 164 187 219 238 185 83 58 47 57 60
191 190 170 186 190 192 191 194 193 194 192 184 181 168 174 180 178 171 170 140 156 145 147 141 155 161 164 159 169 150 134 136 145 137 111 118 122 152 192 222 153 154 173 193 208 176 111 122 116 76 58 58
187 184 184 175 186 189 193 190 196 195 197 191 186 174 173 175 180 175 156 138 152 152 146 146 157 165 164 155 165 157 142 146 143 134 136 142 159 196 209 197 162 167 172 187 162 109 122 142 121 108 90 81
181 189 188 183 177 184 195 191 191 195 195 197 188 185 173 173 181 175 160 148 152 161 154 151 160 166 172 168 161 172 147 163 160 157 156 159 184 216 182 181 143 109 108 126 109 106 106 104 110 107 101 79
191 189 186 188 187 183 185 186 188 190 194 193 193 188 182 174 174 170 166 156 156 171 160 159 162 164 175 174 164 174 159 166 163 172 160 163 185 202 150 131 116 105 89 98 113 121 109 100 89 92 86 76
191 189 189 183 188 189 183 190 185 182 181 188 191 188 183 172 171 171 170 159 161 162 170 165 163 167 178 172 164 165 189 169 164 172 160 163 181 157 131 130 152 158 166 147 137 124 133 118 95 87 92 76
190 189 189 191 192 188 183 190 182 175 180 183 182 183 182 177 173 172 171 156 157 163 180 172 166 166 175 172 164 162 187 178 157 164 155 160 158 147 144 149 191 153 178 163 132 126 137 122 129 121 109 130
193 186 189 188 188 189 189 187 182 178 175 179 179 176 177 174 174 162 163 155 159 163 174 177 171 172 170 168 169 165 175 162 155 157 159 161 158 158 153 169 175 148 149 122 97 115 117 134 107 108 114 98
194 196 191 185 186 191 186 180 186 181 178 182 179 172 174 172 174 164 168 155 160 162 173 177 173 172 167 171 163 164 158 157 154 157 158 153 155 157 151 155 158 150 135 131 128 111 109 93 106 107 109 105
195 194 190 183 188 189 185 183 184 188 184 181 179 173 172 176 175 170 165 163 162 161 169 172 170 171 166 163 155 153 148 147 150 149 148 158 149 150 140 134 164 144 140 132 135 124 142 107 101 122 112 113
185 192 193 186 180 182 184 186 189 191 184 179 176 170 173 176 176 177 165 158 162 161 166 172 173 170 165 157 151 146 143 151 156 153 150 162 147 158 143 151 161 142 136 135 135 131 145 119 132 112 107 133
179 182 186 181 177 179 182 185 188 190 185 178 176 167 169 175 175 177 169 160 161 166 165 169 169 170 169 155 151 149 157 155 158 151 159 158 153 152 143 146 161 152 149 142 140 140 135 129 126 109 113 102
161 168 171 165 164 165 172 171 181 183 188 179 172 166 166 177 173 174 171 162 161 167 169 169 169 173 164 159 154 155 158 156 163 158 157 170 151 153 163 151 170 162 147 144 141 143 146 130 125 134 123 131
154 121 133 129 142 156 152 163 169 173 173 169 169 159 159 173 173 180 177 167 166 166 170 168 168 172 168 159 156 155 162 165 166 156 160 174 173 163 164 161 165 164 146 141 138 132 119 138 142 145 148 162
119 90 90 90 103 131 132 153 142 151 146 169 162 149 150 166 174 182 181 171 164 166 170 166 166 170 165 158 156 157 164 175 168 162 161 172 183 171 159 163 162 161 145 136 130 119 118 132 138 153 147 155
82 69 59 61 59 58 59 82 81 89 103 129 123 140 138 157 166 176 180 175 164 162 169 166 167 170 172 162 160 158 166 173 171 167 169 170 182 177 170 162 167 156 142 136 126 124 132 117 100 112 109 122
71 67 69 64 33 39 34 43 72 43 90 92 99 117 121 140 150 164 176 176 169 163 167 171 177 172 167 168 161 164 167 179 178 177 175 179 173 173 165 159 155 139 129 106 109 113 78 75 75 53 84 150
87 87 58 56 97 138 149 135 76 73 27 55 70 89 98 124 126 154 168 177 166 178 174 182 176 160 171 170 172 175 184 182 185 183 178 172 175 168 163 169 154 152 134 127 89 81 110 99 132 133 11 248
74 96 137 142 175 153 141 136 134 143 109 119 90 100 112 131 139 160 173 178 178 184 181 181 179 171 176 173 181 187 182 182 183 175 175 162 172 195 170 175 165 163 126 168 165 149 165 59 255 198 203 246
38 37 33 50 32 41 21 50 61 66 50 80 76 77 91 112 138 147 171 181 186 188 193 188 181 181 175 179 175 173 186 185 187 186 181 176 175 182 204 159 181 171 178 158 140 121 98 205 167 294 276 251
30 59 58 57 54 49 80 78 38 41 39 41 47 44 60 53 109 136 166 181 192 197 201 199 197 187 179 186 181 181 184 187 192 186 184 181 185 170 173 183 199 200 189 143 137 170 199 190 142 247 240 205
7 41 50 66 55 57 55 43 73 80 56 105 101 63 97 235 134 159 173 183 197 200 211 214 210 198 190 188 193 187 192 193 197 193 192 188 182 182 181 191 182 209 204 200 195 147 118 99 223 218 202 138
10 34 43 33 35 28 28 22 41 116 197 172 154 191 205 176 171 187 191 187 194 210 216 226 226 221 198 196 197 198 202 203 199 201 198 197 190 194 199 183 169 190 223 211 218 224 210 150 175 174 187 129
17 31 31 36 38 38 34 23 2 15 35 50 24 116 133 174 168 187 189 207 185 193 210 224 235 236 229 213 203 202 204 209 209 207 207 198 200 201 197 171 186 191 198 217 249 234 234 154 149 152 131 202